Location: La Comballaz
(46.3780°N, 7.0817°E)
Time: 11:46:48
(UTC+00:00)

STARLINK-1243 - Pass Details

Date: 09 April 2020
Orbit: 549 x 550 km, 53.0° (Epoch: 03 June)

Event Time Altitude Azimuth Distance (km) Brightness Sun altitude
Rises 19:28:23 0° 299° (WNW) 2,723 9.2 -13.2°
Reaches altitude 10° 19:30:41 10° 304° (NW) 1,828 7.7 -13.6°
Maximum altitude 19:34:45 53° 22° (NNE) 683 4.1 -14.2°
Enters shadow 19:37:09 22° 91° (E) 1,213 4.8 -14.6°
